Regional Weather Roundup
Issued by NWS

Home | Current Version | Previous Version | Graphics & Text | Print | Product List | Glossary On
Versions: 1 2 3 4 5 6 7 8 9 10 11 12 13 14 15 16 17 18 19 20 21 22 23 24 25 26 27
000
ASUS45 KSLC 250010
RWRUT

UTAH REGIONAL WEATHER ROUNDUP
NATIONAL WEATHER SERVICE SALT LAKE CITY UT
600 PM MDT THU APR 24 2014

UTZ001>011-023>025-250100-

NORTHERN UTAH

CITY           SKY/WX    TMP DP  RH WIND       PRES   REMARKS
HILL AFB       NOT AVBL
LOGAN          SUNNY     60  26  27 S7        29.93F
OGDEN          CLOUDY    62  20  19 CALM      29.93F
PROVO AIRPORT  PTSUNNY   68  21  17 S6        29.93F
SALT LAKE CITY PTSUNNY   67  24  19 N10       29.91F
VERNAL         SUNNY     63  17  17 SW8       29.93F
WENDOVER       CLOUDY    64  21  19 CALM      29.89F
HEBER CITY     MOSUNNY   63  19  19 SW14      29.94F
WEST JORDAN    MOSUNNY   63  28  27 NW9       29.93F

$$

UTZ012>022-026-027-250100-

SOUTHERN UTAH

CITY           SKY/WX    TMP DP  RH WIND       PRES   REMARKS
BRYCE CANYON   SUNNY     59  15  18 SE12      30.04F
CEDAR CITY     SUNNY     68  10  10 SW10      29.96S
MILFORD        SUNNY     73  14  10 S20G28    29.88F
MOAB/CYNLANDS  SUNNY     68   9  10 E7        29.93F
PRICE          MOSUNNY   61  10  13 SE6       29.97F
ST GEORGE      PTCLDY    79  19  11 W13       29.87F

$$

REGIONAL REPORTS     COLORADO/ARIZONA

CITY           SKY/WX    TMP DP  RH WIND       PRES   REMARKS
CRAIG, CO      MOSUNNY   57  19  22 W22G28    29.98S
GRAND JUNCTION MOSUNNY   63  13  14 W5        29.97F
RIFLE          PTSUNNY   62  11  13 W23       29.97F
MONTROSE       MOSUNNY   63  10  12 VRB3      30.02S
CORTEZ         SUNNY     64  -5   6 W12       30.04S
PAGE, AZ       SUNNY     74  12   9 NE9       29.92F
GRAND CANYON   SUNNY     68   5   8 SW9       30.03F
KINGMAN        SUNNY     77   0   5 SW18      29.92F
FLAGSTAFF      SUNNY     63   7  11 SW15G25   30.08S

$$

REGIONAL REPORTS    NEVADA/IDAHO/WYOMING

CITY           SKY/WX    TMP DP  RH WIND       PRES   REMARKS
LAS VEGAS, NV  MOSUNNY   85   7   5 S14       29.78F
ELY            PTSUNNY   64  17  16 W16G26    29.94F
ELKO           CLOUDY    61  21  21 W14       29.93F
POCATELLO, ID  MOSUNNY   57  34  41 W15       29.93F
BURLEY         PTSUNNY   57  35  43 W9        29.89F
EVANSTON, WY   PTSUNNY   51  21  30 SW20G28   30.00F
ROCK SPRINGS   NOT AVBL

$$



USA.gov is the U.S. government's official web portal to all federal, state and local government web resources and services.